2023/08/19 00:00:00, 5.0,24.0
2023/08/19 00:10:00, 4.7,24.0
2023/08/19 00:20:00, 4.8,24.1
2023/08/19 00:30:00, 5.3,24.0
2023/08/19 00:40:00, 4.9,24.0
2023/08/19 00:50:00, 4.9,24.0
2023/08/19 01:00:00, 4.5,24.3
2023/08/19 01:10:00, 4.0,24.1
2023/08/19 01:20:00, 4.0,24.0
2023/08/19 01:30:00, 4.1,24.0
2023/08/19 01:40:00, 4.7,24.0
2023/08/19 01:50:00, 4.2,23.9
2023/08/19 02:00:00, 4.2,24.0
2023/08/19 02:10:00, 4.1,24.0
2023/08/19 02:20:00, 3.9,24.0
2023/08/19 02:30:00, 3.9,23.8
2023/08/19 02:40:00, 4.7,24.1
2023/08/19 02:50:00, 5.4,23.8
2023/08/19 03:00:00, 5.5,23.8
2023/08/19 03:10:00, 5.5,24.0
2023/08/19 03:20:00, 4.1,23.9
2023/08/19 03:30:00, 4.6,24.0
2023/08/19 03:40:00, 4.8,24.4
2023/08/19 03:50:00, 4.6,24.2
2023/08/19 04:00:00, 4.7,24.7
2023/08/19 04:10:00, 3.7,25.1
2023/08/19 04:20:00, 3.2,25.0
2023/08/19 04:30:00, 2.8,24.6
2023/08/19 04:40:00, 3.8,24.5
2023/08/19 04:50:00, 5.0,23.5
2023/08/19 05:00:00, 5.5,23.8
2023/08/19 05:10:00, 4.9,24.1
2023/08/19 05:20:00, 5.6,24.5
2023/08/19 05:30:00, 6.5,24.8
2023/08/19 05:40:00, 3.7,25.0
2023/08/19 05:50:00, 3.2,24.7
2023/08/19 06:00:00, 4.0,24.9
2023/08/19 06:10:00, 3.5,25.0
2023/08/19 06:20:00, 3.5,25.4
2023/08/19 06:30:00, 4.6,24.7
2023/08/19 06:40:00, 5.7,24.9
2023/08/19 06:50:00, 5.9,24.7
2023/08/19 07:00:00, 5.3,25.1
2023/08/19 07:10:00, 5.5,25.6
2023/08/19 07:20:00, 5.6,26.0
2023/08/19 07:30:00, 6.4,26.0
2023/08/19 07:40:00, 7.6,26.3
2023/08/19 07:50:00, 7.7,27.2
2023/08/19 08:00:00, 7.6,27.6
2023/08/19 08:10:00, 8.3,27.7
2023/08/19 08:20:00, 8.4,28.4
2023/08/19 08:30:00, 8.3,29.8
2023/08/19 08:40:00, 8.0,31.2
2023/08/19 08:50:00, 4.7,31.8
2023/08/19 09:00:00, 4.3,32.9
2023/08/19 09:10:00, 0.2,33.3
2023/08/19 09:20:00, 0.0,35.4
2023/08/19 09:30:00, 0.0,36.7
2023/08/19 09:40:00, 0.0,35.9
2023/08/19 09:50:00, 0.0,35.5
2023/08/19 10:00:00, 0.0,36.5
2023/08/19 10:10:00, 0.0,37.6
2023/08/19 10:20:00, 0.0,36.1
2023/08/19 10:30:00, 0.0,35.7
2023/08/19 10:40:00, 0.0,36.8
2023/08/19 10:50:00, 0.0,37.8
2023/08/19 11:00:00, 0.0,37.0
2023/08/19 11:10:00, 0.0,37.9
2023/08/19 11:20:00, 0.0,37.3
2023/08/19 11:30:00, 0.0,37.3
2023/08/19 11:40:00, 0.0,38.5
2023/08/19 11:50:00, 0.0,38.4
2023/08/19 12:00:00, 0.0,34.7
2023/08/19 12:10:00, 0.0,35.6
2023/08/19 12:20:00, 0.0,35.1
2023/08/19 12:30:00, 0.0,36.0
2023/08/19 12:40:00, 0.0,34.8
2023/08/19 12:50:00, 0.0,35.1
2023/08/19 13:00:00, 0.0,34.9
2023/08/19 13:10:00, 0.0,35.4
2023/08/19 13:20:00, 0.0,37.1
2023/08/19 13:30:00, 0.0,37.3
2023/08/19 13:40:00, 0.0,36.2
2023/08/19 13:50:00, 0.0,36.6
2023/08/19 14:00:00, 0.0,36.5
2023/08/19 14:10:00, 0.0,35.9
2023/08/19 14:20:00, 0.0,36.0
2023/08/19 14:30:00, 0.0,36.7
2023/08/19 14:40:00, 0.0,36.4
2023/08/19 14:50:00, 0.0,36.1
2023/08/19 15:00:00, 0.0,36.8
2023/08/19 15:10:00, 0.0,36.2
2023/08/19 15:20:00, 0.0,36.5
2023/08/19 15:30:00, 0.0,36.5
2023/08/19 15:40:00, 0.0,34.3
2023/08/19 15:50:00, 0.0,35.0
2023/08/19 16:00:00, 0.0,36.6
2023/08/19 16:10:00, 0.0,36.4
2023/08/19 16:20:00, 0.0,35.5
2023/08/19 16:30:00, 0.0,33.7
2023/08/19 16:40:00, 0.0,32.9
2023/08/19 16:50:00, 0.0,32.5
2023/08/19 17:00:00, 0.0,32.8
2023/08/19 17:10:00, 0.0,32.7
2023/08/19 17:20:00, 0.0,33.4
2023/08/19 17:30:00, 0.0,34.3
2023/08/19 17:40:00, 0.0,32.0
2023/08/19 17:50:00, 0.0,30.0
2023/08/19 18:00:00, 0.0,29.8
2023/08/19 18:10:00, 0.0,29.5
2023/08/19 18:20:00, 0.0,29.3
2023/08/19 18:30:00, 0.0,28.1
2023/08/19 18:40:00, 0.0,27.6
2023/08/19 18:50:00, 0.0,27.3
2023/08/19 19:00:00, 0.0,26.6
2023/08/19 19:10:00, 0.0,26.2
2023/08/19 19:20:00, 0.0,26.1
2023/08/19 19:30:00, 0.0,25.8
2023/08/19 19:40:00, 0.0,26.4
2023/08/19 19:50:00, 0.0,26.4
2023/08/19 20:00:00, 0.0,26.5
2023/08/19 20:10:00, 0.0,27.4
2023/08/19 20:20:00, 0.0,26.0
2023/08/19 20:30:00, 0.0,25.4
2023/08/19 20:40:00, 0.0,26.1
2023/08/19 20:50:00, 0.0,25.8
2023/08/19 21:00:00, 0.0,25.1
2023/08/19 21:10:00, 0.0,25.7
2023/08/19 21:20:00, 0.0,25.6
2023/08/19 21:30:00, 0.0,25.7
2023/08/19 21:40:00, 0.0,25.4
2023/08/19 21:50:00, 0.0,25.4
2023/08/19 22:00:00, 0.0,25.4
2023/08/19 22:10:00, 0.0,25.4
2023/08/19 22:20:00, 0.0,24.8
2023/08/19 22:30:00, 0.0,24.9
2023/08/19 22:40:00, 0.0,25.0
2023/08/19 22:50:00, 0.0,24.7
2023/08/19 23:00:00, 0.0,24.9
2023/08/19 23:10:00, 0.0,24.7
2023/08/19 23:20:00, 0.0,24.6
2023/08/19 23:30:00, 0.0,24.6
2023/08/19 23:40:00, 0.0,24.6
2023/08/19 23:50:00, 0.0,24.3
